Flag for Germany Weather past 2 weeks in Hückelhoven, North Rhine-Westphalia, Germany

64 °F

Broken clouds.

Feels Like: 64 °F
Forecast: 56 / 64 °F
Wind: 3 mph from South

Location: Geilenkirchen Airport

Current Time: Oct 6, 2015 at 7:15:43 PM

Latest Report: Oct 6, 2015 at 5:50 PM

Visibility: N/A

Pressure: 29.59 "Hg

Humidity: 83%

Dew point: 59 °F

Location of HückelhovenLocation

Historic Weather in Hückelhoven — Graph


Hückelhoven temperature yesterday

Maximum temperature yesterday: 64 °F (at 3:50 PM)
Minimum temperature yesterday: 46 °F (at 2:50 AM)
Average temperature yesterday: 56 °F

Past Weeks' High & Low Weather Summary

High68 °F (Oct 6, 12:50 PM)100% (Sep 28, 12:50 AM)30.63 "Hg (Sep 28, 12:50 AM)
Low37 °F (Sep 28, 7:50 AM)42% (Oct 1, 12:50 PM)29.50 "Hg (Sep 22, 3:50 PM)
Average55 °F79%30.11 "Hg
* Reported Sep 21 5:50 PM — Oct 6 5:50 PM, Hückelhoven, Weather by CustomWeather, © 2015

Note: Actual official high and low records may vary slightly from our data, if they occured in-between our weather recording intervals... More about our weather records


Hückelhoven weather history for previous 24 hours

Time TempWeatherWind HumidityBarometerVisibility
5:50 PM
Tue, Oct 6
64 °FBroken clouds.3 mph83%29.59 "HgN/A
4:50 PM64 °FBroken clouds.2 mph88%29.59 "HgN/A
3:50 PM66 °FLight rain. Broken clouds.2 mph83%29.59 "HgN/A
2:50 PM68 °FLight rain. Broken clouds.5 mph73%29.59 "HgN/A
1:50 PM68 °FBroken clouds.3 mph73%29.59 "HgN/A
12:50 PM68 °FScattered clouds.10 mph73%29.62 "HgN/A
11:50 AM66 °FScattered clouds.5 mph78%29.62 "HgN/A
10:50 AM63 °FScattered clouds.7 mph83%29.62 "HgN/A
9:50 AM61 °FBroken clouds.3 mph88%29.62 "HgN/A
8:50 AM59 °FBroken clouds.9 mph94%29.62 "HgN/A
7:50 AM59 °FPartly cloudy.12 mph94%29.59 "HgN/A
6:50 AM59 °FPartly cloudy.14 mph94%29.59 "HgN/A
5:50 AM61 °FPartly cloudy.12 mph88%29.56 "HgN/A
4:50 AM61 °FLight rain. Partly cloudy.9 mph94%29.56 "Hg4 mi
3:50 AM57 °FDrizzle. Fog.6 mph94%29.59 "Hg1 mi
2:50 AM57 °FDrizzle. Fog.9 mph94%29.59 "Hg1 mi
1:50 AM57 °FDrizzle. Fog.14 mph94%29.62 "Hg1 mi
12:50 AM57 °FDrizzle. Mostly cloudy.13 mph94%29.65 "Hg1 mi
11:50 PM
Mon, Oct 5
57 °FLight rain. Mostly cloudy.12 mph94%29.68 "Hg5 mi
10:50 PM57 °FLight rain. Overcast.9 mph94%29.71 "HgN/A
9:50 PM57 °FLight rain. Mostly cloudy.7 mph94%29.74 "Hg4 mi
8:50 PM59 °FLight rain. Partly cloudy.7 mph88%29.74 "HgN/A
7:50 PM59 °FLight rain. More clouds than sun.5 mph82%29.77 "HgN/A
Weather by CustomWeather, © 2015

See weather overviewHow to use our weather pages